K0SDS Weather Reports


time (UTC)temp
C
wind
direction
speed
KPH
gust
KPH
rain 1hr
cm
rain 24hr
cm
rain mn
cm
humidity
%
barometer
mb
20260906181040 35 122 3.2 3.2 0.00 0.00 0.00 52 1014.2
20260906180534 35 132 6.4 9.7 0.00 0.00 0.00 53 1014.3
20260906180033 35 103 4.8 8.0 0.00 0.00 0.00 53 1014.4
20260906175532 34 99 4.8 4.8 0.00 0.00 0.00 54 1014.7
20260906175033 34 119 4.8 8.0 0.00 0.00 0.00 55 1014.7
20260906174531 34 122 4.8 4.8 0.00 0.00 0.00 57 1014.9
20260906174026 33 95 3.2 3.2 0.00 0.00 0.00 59 1014.7
20260906173521 33 166 4.8 8.0 0.00 0.00 0.00 58 1014.9
20260906173017 33 103 1.6 3.2 0.00 0.00 0.00 58 1014.8
20260906172511 33 136 4.8 4.8 0.00 0.00 0.00 58 1015.0
20260906172007 33 148 3.2 3.2 0.00 0.00 0.00 57 1015.1
20260906171501 33 176 6.4 8.0 0.00 0.00 0.00 57 1015.3
20260906170956 33 103 3.2 4.8 0.00 0.00 0.00 56 1015.2
20260906170453 33 117 4.8 4.8 0.00 0.00 0.00 58 1015.3
20260906165949 33 103 3.2 3.2 0.00 0.00 0.00 57 1015.3
20260906165448 33 119 3.2 3.2 0.00 0.00 0.00 59 1015.5
20260906164944 33 141 4.8 4.8 0.00 0.00 0.00 57 1015.4
20260906164442 33 118 3.2 3.2 0.00 0.00 0.00 58 1015.5
20260906163939 33 172 6.4 8.0 0.00 0.00 0.00 57 1015.5
20260906163434 33 85 1.6 3.2 0.00 0.00 0.00 56 1015.6
20260906162933 33 99 3.2 3.2 0.00 0.00 0.00 57 1015.4
20260906162431 33 134 3.2 4.8 0.00 0.00 0.00 57 1015.6
20260906161927 33 84 3.2 3.2 0.00 0.00 0.00 57 1015.6
20260906161426 33 121 4.8 4.8 0.00 0.00 0.00 60 1015.7
20260906160925 32 82 4.8 8.0 0.00 0.00 0.00 59 1015.4
20260906160418 33 143 3.2 4.8 0.00 0.00 0.00 59 1015.4
20260906155917 32 85 1.6 1.6 0.00 0.00 0.00 61 1015.4
20260906155410 32 104 3.2 3.2 0.00 0.00 0.00 61 1015.4
20260906154907 32 133 8.0 9.7 0.00 0.00 0.00 60 1015.2
20260906154401 32 114 3.2 3.2 0.00 0.00 0.00 61 1015.3
20260906153859 32 79 4.8 8.0 0.00 0.00 0.00 60 1015.3
20260906153354 32 107 4.8 4.8 0.00 0.00 0.00 61 1015.1
20260906152849 32 139 4.8 4.8 0.00 0.00 0.00 61 1015.0
20260906152349 32 130 4.8 4.8 0.00 0.00 0.00 62 1015.2
20260906151848 32 83 4.8 4.8 0.00 0.00 0.00 62 1015.0
20260906151344 31 86 1.6 3.2 0.00 0.00 0.00 63 1014.8
20260906150840 31 123 4.8 9.7 0.00 0.00 0.00 63 1015.1
20260906150335 31 133 6.4 8.0 0.00 0.00 0.00 64 1015.1
20260906145834 32 160 8.0 9.7 0.00 0.00 0.00 63 1015.1
20260906145333 31 76 3.2 4.8 0.00 0.00 0.00 64 1015.3
20260906144828 31 114 3.2 3.2 0.00 0.00 0.00 66 1015.1
20260906144323 31 92 1.6 3.2 0.00 0.00 0.00 65 1014.9
20260906143823 31 133 6.4 8.0 0.00 0.00 0.00 65 1015.1
20260906143319 31 148 6.4 9.7 0.00 0.00 0.00 65 1015.2
20260906142815 30 107 4.8 8.0 0.00 0.00 0.00 66 1015.2
20260906142310 30 108 4.8 4.8 0.00 0.00 0.00 66 1015.2
20260906141809 30 92 1.6 3.2 0.00 0.00 0.00 68 1015.0
20260906141304 30 106 4.8 8.0 0.00 0.00 0.00 67 1015.1
20260906140802 30 128 4.8 8.0 0.00 0.00 0.00 66 1015.1
20260906140257 30 84 1.6 1.6 0.00 0.00 0.00 67 1015.1
20260906135755 30 68 6.4 8.0 0.00 0.00 0.00 65 1015.2
20260906135250 30 97 1.6 1.6 0.00 0.00 0.00 68 1015.1
20260906134746 30 80 1.6 1.6 0.00 0.00 0.00 69 1015.2
20260906134241 30 105 3.2 3.2 0.00 0.00 0.00 69 1015.1
20260906133736 30 110 0.0 0.0 0.00 0.00 0.00 69 1015.1
20260906133232 29 79 3.2 3.2 0.00 0.00 0.00 68 1015.0
20260906132727 29 88 0.0 0.0 0.00 0.00 0.00 71 1015.1
20260906132222 28 89 0.0 0.0 0.00 0.00 0.00 74 1014.9
20260906131717 27 84 0.0 0.0 0.00 0.00 0.00 77 1014.9
20260906131207 27 82 0.0 0.0 0.00 0.00 0.00 80 1014.7
20260906130702 26 82 0.0 0.0 0.00 0.00 0.00 84 1014.6
20260906130157 25 53 0.0 0.0 0.00 0.00 0.00 85 1014.6
20260906125655 25 93 0.0 0.0 0.00 0.00 0.00 86 1014.6
20260906125154 24 84 0.0 0.0 0.00 0.00 0.00 87 1014.5
20260906124650 24 82 0.0 0.0 0.00 0.00 0.00 87 1014.4
20260906124145 24 83 0.0 0.0 0.00 0.00 0.00 87 1014.2
20260906123644 24 78 1.6 3.2 0.00 0.00 0.00 86 1014.3
20260906123139 23 65 1.6 3.2 0.00 0.00 0.00 87 1014.3
20260906122638 23 63 1.6 1.6 0.00 0.00 0.00 90 1014.3
20260906122134 22 66 1.6 3.2 0.00 0.00 0.00 91 1014.3
20260906121630 22 75 0.0 0.0 0.00 0.00 0.00 91 1014.2
20260906121126 22 86 0.0 0.0 0.00 0.00 0.00 91 1014.0
20260906120621 22 81 0.0 0.0 0.00 0.00 0.00 91 1014.0
20260906120119 22 81 0.0 0.0 0.00 0.00 0.00 91 1014.0
20260906115618 22 83 0.0 0.0 0.00 0.00 0.00 91 1014.0
20260906115114 22 80 0.0 0.0 0.00 0.00 0.00 91 1014.1
20260906114608 22 78 0.0 0.0 0.00 0.00 0.00 91 1014.2
20260906114103 22 81 0.0 0.0 0.00 0.00 0.00 90 1014.0
20260906113603 22 80 0.0 0.0 0.00 0.00 0.00 90 1014.1
20260906113057 22 80 0.0 0.0 0.00 0.00 0.00 90 1014.0
20260906112552 22 80 0.0 0.0 0.00 0.00 0.00 90 1013.9
20260906112048 22 84 0.0 0.0 0.00 0.00 0.00 90 1014.0
20260906111548 22 78 0.0 0.0 0.00 0.00 0.00 90 1013.9
20260906111043 22 81 0.0 0.0 0.00 0.00 0.00 89 1013.8
20260906110543 22 79 0.0 0.0 0.00 0.00 0.00 89 1013.9
20260906110042 23 80 0.0 0.0 0.00 0.00 0.00 89 1013.9
20260906105537 23 78 0.0 0.0 0.00 0.00 0.00 89 1013.9
20260906105033 23 80 1.6 3.2 0.00 0.00 0.00 89 1013.7
20260906104532 22 79 0.0 0.0 0.00 0.00 0.00 90 1014.1
20260906104027 22 72 0.0 0.0 0.00 0.00 0.00 89 1013.8
20260906103525 22 79 0.0 0.0 0.00 0.00 0.00 89 1013.7
20260906103020 22 80 0.0 0.0 0.00 0.00 0.00 89 1013.6
20260906102520 23 81 0.0 0.0 0.00 0.00 0.00 89 1013.9
20260906102015 23 82 0.0 0.0 0.00 0.00 0.00 88 1013.7
20260906101510 23 76 0.0 0.0 0.00 0.00 0.00 88 1013.7
20260906101004 23 81 0.0 0.0 0.00 0.00 0.00 88 1013.5
20260906100500 23 77 0.0 0.0 0.00 0.00 0.00 87 1013.4
20260906095954 23 78 0.0 0.0 0.00 0.00 0.00 87 1013.7
20260906095449 23 77 0.0 0.0 0.00 0.00 0.00 87 1013.7
20260906094944 23 79 0.0 0.0 0.00 0.00 0.00 86 1013.7
20260906094438 23 82 0.0 0.0 0.00 0.00 0.00 86 1013.7
20260906093934 23 78 0.0 0.0 0.00 0.00 0.00 85 1013.8
20260906093430 24 73 0.0 0.0 0.00 0.00 0.00 85 1013.6
20260906092930 24 78 0.0 0.0 0.00 0.00 0.00 83 1013.3
20260906092430 25 82 0.0 0.0 0.00 0.00 0.00 83 1013.5
20260906091925 25 78 0.0 0.0 0.00 0.00 0.00 82 1013.3
20260906091421 25 81 0.0 0.0 0.00 0.00 0.00 80 1013.4
20260906090918 26 80 0.0 0.0 0.00 0.00 0.00 78 1013.1
20260906090418 26 80 0.0 0.0 0.00 0.00 0.00 77 1013.3
20260906085912 26 71 0.0 0.0 0.00 0.00 0.00 75 1013.2
20260906085406 27 72 0.0 1.6 0.00 0.00 0.00 75 1013.2
20260906084905 27 67 1.6 1.6 0.00 0.00 0.00 75 1012.9
20260906084401 26 70 1.6 1.6 0.00 0.00 0.00 75 1012.9
20260906083854 27 65 1.6 3.2 0.00 0.00 0.00 75 1013.1
20260906083350 26 65 1.6 1.6 0.00 0.00 0.00 75 1013.3
20260906082849 26 78 0.0 0.0 0.00 0.00 0.00 76 1013.2
20260906082344 26 73 0.0 1.6 0.00 0.00 0.00 75 1012.9
20260906081841 27 64 0.0 1.6 0.00 0.00 0.00 75 1013.2
20260906081336 27 79 0.0 0.0 0.00 0.00 0.00 75 1013.1
20260906080832 27 75 0.0 1.6 0.00 0.00 0.00 74 1013.1
20260906080328 27 78 0.0 0.0 0.00 0.00 0.00 74 1012.9
20260906075827 27 81 4.8 4.8 0.00 0.00 0.00 74 1012.7
20260906075322 27 92 1.6 1.6 0.00 0.00 0.00 74 1012.6
20260906074817 27 57 1.6 3.2 0.00 0.00 0.00 74 1012.8
20260906074317 27 82 3.2 3.2 0.00 0.00 0.00 74 1012.6
20260906073816 27 74 1.6 3.2 0.00 0.00 0.00 75 1012.8
20260906073311 27 87 1.6 1.6 0.00 0.00 0.00 74 1013.2
20260906072808 27 86 0.0 1.6 0.00 0.00 0.00 74 1013.1
20260906072305 27 74 0.0 0.0 0.00 0.00 0.00 74 1013.1
20260906071758 27 77 1.6 1.6 0.00 0.00 0.00 74 1012.7
20260906071258 27 83 0.0 1.6 0.00 0.00 0.00 74 1012.9
20260906070755 27 82 1.6 1.6 0.00 0.00 0.00 74 1013.1
20260906070250 27 84 1.6 1.6 0.00 0.00 0.00 73 1013.1
20260906065750 27 73 0.0 0.0 0.00 0.00 0.00 73 1013.1
20260906065245 27 77 0.0 1.6 0.00 0.00 0.00 73 1013.3
20260906064741 27 109 0.0 1.6 0.00 0.00 0.00 73 1013.1
20260906064237 27 74 3.2 3.2 0.00 0.00 0.00 73 1013.1
20260906063731 28 80 3.2 3.2 0.00 0.00 0.00 73 1013.3
20260906063227 28 73 1.6 3.2 0.00 0.00 0.00 73 1013.4
20260906062722 28 76 0.0 0.0 0.00 0.00 0.00 73 1013.3
20260906062221 28 76 0.0 0.0 0.00 0.00 0.00 73 1013.5
20260906061717 28 71 4.8 8.0 0.00 0.00 0.00 73 1013.3
20260906061213 28 93 1.6 3.2 0.00 0.00 0.00 73 1013.4
20260906060709 28 79 1.6 3.2 0.00 0.00 0.00 73 1013.4
20260906060206 28 127 1.6 3.2 0.00 0.00 0.00 73 1013.4
20260906055701 28 75 0.0 0.0 0.00 0.00 0.00 73 1013.5
20260906055156 28 82 1.6 1.6 0.00 0.00 0.00 73 1013.5
20260906054652 28 69 1.6 3.2 0.00 0.00 0.00 72 1013.5
20260906054146 28 80 0.0 0.0 0.00 0.00 0.00 72 1013.5
20260906053643 28 77 0.0 1.6 0.00 0.00 0.00 72 1013.3
20260906053138 28 79 0.0 1.6 0.00 0.00 0.00 72 1013.6
20260906052634 28 92 3.2 3.2 0.00 0.00 0.00 72 1013.4
20260906052130 28 70 0.0 1.6 0.00 0.00 0.00 72 1013.6
20260906051626 28 76 0.0 1.6 0.00 0.00 0.00 72 1013.6
20260906051126 28 77 0.0 1.6 0.00 0.00 0.00 72 1013.6
20260906050622 28 72 0.0 1.6 0.00 0.00 0.00 71 1013.6
20260906050116 28 63 3.2 3.2 0.00 0.00 0.00 71 1013.5
20260906045614 28 80 0.0 0.0 0.00 0.00 0.00 71 1013.4
20260906045110 28 77 0.0 0.0 0.00 0.00 0.00 72 1013.4
20260906044606 28 80 0.0 0.0 0.00 0.00 0.00 72 1013.5
20260906044101 28 79 1.6 1.6 0.00 0.00 0.00 72 1013.4
20260906043557 28 74 1.6 1.6 0.00 0.00 0.00 70 1013.7
20260906043053 28 73 1.6 1.6 0.00 0.00 0.00 71 1013.5
20260906042551 28 76 1.6 1.6 0.00 0.00 0.00 71 1013.6
20260906042046 28 71 0.0 0.0 0.00 0.00 0.00 71 1013.5
20260906041543 28 78 0.0 1.6 0.00 0.00 0.00 71 1013.4
20260906041037 28 66 0.0 1.6 0.00 0.00 0.00 71 1013.3
20260906040532 28 75 0.0 1.6 0.00 0.00 0.00 70 1013.6
20260906040028 28 70 1.6 1.6 0.00 0.00 0.00 70 1013.2
20260906035523 28 79 0.0 1.6 0.00 0.00 0.00 71 1013.2
20260906035019 28 67 1.6 1.6 0.00 0.00 0.00 71 1013.3
20260906034518 28 76 0.0 0.0 0.00 0.00 0.00 70 1013.3
20260906034014 28 73 0.0 0.0 0.00 0.00 0.00 71 1013.2
20260906033509 28 76 1.6 1.6 0.00 0.00 0.00 71 1013.1
20260906033004 28 86 0.0 0.0 0.00 0.00 0.00 70 1012.7
20260906032500 29 76 0.0 0.0 0.00 0.00 0.00 70 1012.6
20260906031954 29 76 0.0 0.0 0.00 0.00 0.00 69 1012.9
20260906031450 29 86 0.0 0.0 0.00 0.00 0.00 69 1012.6
20260906030945 29 78 0.0 0.0 0.00 0.00 0.00 69 1012.8
20260906030440 29 76 0.0 0.0 0.00 0.00 0.00 69 1012.7
20260906025934 29 65 3.2 3.2 0.00 0.00 0.00 69 1012.5
20260906025428 29 85 3.2 3.2 0.00 0.00 0.00 69 1012.6
20260906024927 29 70 0.0 1.6 0.00 0.00 0.00 69 1012.5
20260906024427 29 72 1.6 1.6 0.00 0.00 0.00 69 1012.6
20260906023922 30 78 0.0 0.0 0.00 0.00 0.00 69 1012.3
20260906023419 30 60 3.2 3.2 0.00 0.00 0.00 68 1012.3
20260906022918 30 72 0.0 1.6 0.00 0.00 0.00 68 1012.4
20260906022413 30 73 1.6 1.6 0.00 0.00 0.00 67 1012.0
20260906021909 30 44 1.6 3.2 0.00 0.00 0.00 67 1012.0
20260906021409 30 71 1.6 1.6 0.00 0.00 0.00 67 1011.9
20260906020903 30 70 3.2 3.2 0.00 0.00 0.00 66 1011.7
20260906020357 30 72 1.6 1.6 0.00 0.00 0.00 66 1011.9
20260906015852 30 76 0.0 1.6 0.00 0.00 0.00 65 1011.9
20260906015351 30 64 3.2 3.2 0.00 0.00 0.00 65 1011.7
20260906014845 31 71 0.0 1.6 0.00 0.00 0.00 65 1011.6
20260906014345 31 72 1.6 1.6 0.00 0.00 0.00 64 1011.6
20260906013841 31 72 1.6 1.6 0.00 0.00 0.00 64 1011.7
20260906013337 31 76 0.0 1.6 0.00 0.00 0.00 64 1011.5
20260906012832 31 65 1.6 1.6 0.00 0.00 0.00 64 1011.6
20260906012327 31 48 1.6 1.6 0.00 0.00 0.00 64 1011.6
20260906011827 31 48 3.2 3.2 0.00 0.00 0.00 63 1011.3
20260906011322 31 65 1.6 1.6 0.00 0.00 0.00 62 1011.5
20260906010818 31 67 3.2 3.2 0.00 0.00 0.00 61 1011.4
20260906010314 32 56 1.6 1.6 0.00 0.00 0.00 60 1011.1
20260906005809 32 66 1.6 1.6 0.00 0.00 0.00 59 1011.1
20260906005308 32 78 3.2 3.2 0.00 0.00 0.00 57 1011.1
20260906004806 32 75 1.6 3.2 0.00 0.00 0.00 55 1011.4
20260906004301 32 48 3.2 3.2 0.00 0.00 0.00 54 1011.3
20260906003756 32 67 1.6 1.6 0.00 0.00 0.00 54 1011.4
20260906003252 33 72 1.6 1.6 0.00 0.00 0.00 53 1011.3
20260906002747 33 73 1.6 1.6 0.00 0.00 0.00 54 1011.2
20260906002246 33 81 1.6 1.6 0.00 0.00 0.00 53 1011.3
20260906001742 34 80 0.0 1.6 0.00 0.00 0.00 50 1011.5
20260906001237 34 70 1.6 3.2 0.00 0.00 0.00 50 1011.2
20260906000733 34 73 1.6 3.2 0.00 0.00 0.00 49 1011.0
20260906000234 33 76 0.0 0.0 0.00 0.00 0.00 50 1011.2
20260905235733 34 82 0.0 0.0 0.00 0.00 0.00 52 1011.2
20260905235227 35 83 0.0 0.0 0.00 0.00 0.00 56 1011.4
20260905234723 35 86 0.0 0.0 0.00 0.00 0.00 57 1011.2
20260905234218 35 85 0.0 0.0 0.00 0.00 0.00 55 1011.2
20260905233713 35 84 0.0 0.0 0.00 0.00 0.00 50 1011.3
20260905233212 35 83 0.0 0.0 0.00 0.00 0.00 49 1011.2
20260905232707 35 87 0.0 0.0 0.00 0.00 0.00 51 1011.2
20260905232203 36 91 0.0 0.0 0.00 0.00 0.00 49 1011.4
20260905231659 36 103 1.6 1.6 0.00 0.00 0.00 43 1011.3
20260905231154 36 103 1.6 3.2 0.00 0.00 0.00 43 1011.0
20260905230650 37 93 1.6 1.6 0.00 0.00 0.00 42 1011.3
20260905230148 36 115 0.0 0.0 0.00 0.00 0.00 44 1011.2
20260905225648 37 108 6.4 8.0 0.00 0.00 0.00 42 1011.1
20260905225143 36 134 4.8 4.8 0.00 0.00 0.00 42 1011.1
20260905224642 37 96 3.2 3.2 0.00 0.00 0.00 42 1010.9
20260905224136 37 136 4.8 4.8 0.00 0.00 0.00 41 1011.0
20260905223633 37 126 9.7 11.3 0.00 0.00 0.00 40 1011.0
20260905223130 37 175 4.8 4.8 0.00 0.00 0.00 42 1011.1
20260905222625 37 137 8.0 9.7 0.00 0.00 0.00 42 1011.0
20260905222120 37 139 1.6 3.2 0.00 0.00 0.00 42 1011.3
20260905221616 37 125 6.4 9.7 0.00 0.00 0.00 41 1011.5
20260905221113 37 180 9.7 9.7 0.00 0.00 0.00 40 1011.3
20260905220607 38 106 4.8 8.0 0.00 0.00 0.00 38 1011.5
20260905220103 38 104 3.2 3.2 0.00 0.00 0.00 38 1011.5
20260905215603 38 171 3.2 4.8 0.00 0.00 0.00 40 1011.3
20260905215059 37 112 3.2 3.2 0.00 0.00 0.00 41 1011.3
20260905214554 37 144 8.0 9.7 0.00 0.00 0.00 40 1011.7
20260905214049 37 159 6.4 9.7 0.00 0.00 0.00 40 1011.6
20260905213544 38 85 3.2 3.2 0.00 0.00 0.00 40 1011.6
20260905213040 37 88 0.0 0.0 0.00 0.00 0.00 39 1011.7
20260905212534 37 134 8.0 9.7 0.00 0.00 0.00 40 1011.7
20260905212034 37 127 11.3 11.3 0.00 0.00 0.00 39 1011.9
20260905211529 37 189 9.7 11.3 0.00 0.00 0.00 40 1011.9
20260905211025 37 115 4.8 4.8 0.00 0.00 0.00 40 1011.9
20260905210520 37 114 8.0 9.7 0.00 0.00 0.00 40 1011.8
20260905210020 37 120 8.0 11.3 0.00 0.00 0.00 41 1011.9
20260905205520 37 121 4.8 4.8 0.00 0.00 0.00 41 1011.7
20260905205019 37 113 3.2 3.2 0.00 0.00 0.00 40 1012.1
20260905204514 37 290 4.8 8.0 0.00 0.00 0.00 40 1012.1
20260905204009 37 152 12.9 16.1 0.00 0.00 0.00 42 1012.2
20260905203504 38 155 9.7 11.3 0.00 0.00 0.00 38 1012.1
20260905202959 38 139 4.8 4.8 0.00 0.00 0.00 41 1012.5
20260905202454 38 154 3.2 4.8 0.00 0.00 0.00 41 1012.4
20260905201950 38 115 3.2 4.8 0.00 0.00 0.00 39 1012.4
20260905201445 37 191 6.4 8.0 0.00 0.00 0.00 39 1012.5
20260905200944 37 206 4.8 8.0 0.00 0.00 0.00 40 1012.7
20260905200440 38 244 9.7 12.9 0.00 0.00 0.00 39 1012.6
20260905195939 38 65 1.6 3.2 0.00 0.00 0.00 38 1012.5
20260905195434 38 66 3.2 4.8 0.00 0.00 0.00 39 1012.7
20260905194930 37 64 3.2 3.2 0.00 0.00 0.00 38 1012.7
20260905194428 37 207 8.0 9.7 0.00 0.00 0.00 39 1013.2
20260905193923 37 148 8.0 8.0 0.00 0.00 0.00 41 1013.1
20260905193418 37 241 4.8 8.0 0.00 0.00 0.00 42 1013.1
20260905192913 37 124 4.8 8.0 0.00 0.00 0.00 43 1013.2
20260905192408 36 94 6.4 9.7 0.00 0.00 0.00 44 1013.1
20260905191903 37 178 6.4 9.7 0.00 0.00 0.00 42 1013.2
20260905191402 36 149 11.3 14.5 0.00 0.00 0.00 43 1013.2
20260905190902 36 173 8.0 11.3 0.00 0.00 0.00 44 1013.3
20260905190354 37 224 6.4 9.7 0.00 0.00 0.00 41 1013.3
20260905185853 36 86 4.8 8.0 0.00 0.00 0.00 42 1013.2
20260905185349 36 96 3.2 3.2 0.00 0.00 0.00 43 1013.4
20260905184848 36 200 12.9 14.5 0.00 0.00 0.00 42 1013.3
20260905184348 36 95 3.2 4.8 0.00 0.00 0.00 43 1013.5
20260905183845 36 151 3.2 4.8 0.00 0.00 0.00 46 1013.6
20260905183336 36 127 12.9 14.5 0.00 0.00 0.00 44 1013.7
20260905182835 36 95 3.2 4.8 0.00 0.00 0.00 44 1013.7
20260905182330 36 126 6.4 8.0 0.00 0.00 0.00 44 1014.0
20260905181826 36 198 4.8 8.0 0.00 0.00 0.00 44 1013.9